{"data":{"norad_id":60928,"epoch":"2026-05-24T18:49:22.254240Z","epoch_age_seconds":90799,"freshness":"FRESH","line1":"1 60928U 24155E   26144.78428535  .00000211  00000+0  65945-5 0  9998","line2":"2 60928  53.1596 326.1501 0000511  73.5270 286.5804 15.69703028100404","mean_motion":15.69703028,"eccentricity":5.11e-5,"inclination_deg":53.1596,"raan_deg":326.1501,"arg_perigee_deg":73.527,"mean_anomaly_deg":286.5804,"bstar":6.5945e-6,"rev_number":10040,"period_min":91.737097674758,"perigee_km":359.40239583173,"apogee_km":360.09100754604,"semimajor_km":6737.8837016889,"source":"CELESTRAK","updated_at":"2026-05-25T13:38:19.317778Z"}}